| time (UTC) | temp F | wind direction | speed MPH | gust MPH | rain 1hr in | rain 24hr in | rain mn in | humidity % | barometer mb |
| 20260902113019 | 58 | 68 | 0.0 | 2.0 | 0.00 | 0.00 | 0.00 | 74 | 1007.4 |
| 20260902111518 | 59 | 104 | 0.0 | 1.0 | 0.00 | 0.00 | 0.00 | 73 | 1007.3 |
| 20260902110017 | 59 | 104 | 0.0 | 1.0 | 0.00 | 0.00 | 0.00 | 72 | 1007.3 |
| 20260902104517 | 60 | 104 | 1.0 | 3.0 | 0.00 | 0.00 | 0.00 | 69 | 1007.5 |
| 20260902103028 | 60 | 24 | 0.0 | 1.0 | 0.00 | 0.00 | 0.00 | 67 | 1007.3 |
| 20260902101525 | 60 | 340 | 0.0 | 2.0 | 0.00 | 0.00 | 0.00 | 67 | 1007.1 |
| 20260902100015 | 60 | 94 | 0.0 | 3.0 | 0.00 | 0.00 | 0.00 | 68 | 1006.8 |
| 20260902094514 | 60 | 108 | 1.0 | 8.0 | 0.00 | 0.00 | 0.00 | 68 | 1006.9 |
| 20260902093013 | 59 | 169 | 1.0 | 6.0 | 0.00 | 0.00 | 0.00 | 69 | 1006.5 |
| 20260902091510 | 58 | 65 | 0.0 | 1.0 | 0.00 | 0.00 | 0.00 | 67 | 1007.7 |
| 20260902090007 | 61 | 41 | 2.0 | 5.0 | 0.00 | 0.00 | 0.00 | 61 | 1007.3 |
| 20260902084505 | 62 | 163 | 0.0 | 3.0 | 0.00 | 0.00 | 0.00 | 61 | 1006.8 |
| 20260902083003 | 62 | 113 | 0.0 | 6.0 | 0.00 | 0.00 | 0.00 | 59 | 1007.0 |
| 20260902081503 | 62 | 114 | 1.0 | 4.0 | 0.00 | 0.00 | 0.00 | 57 | 1007.3 |
| 20260902080101 | 63 | 150 | 0.0 | 4.0 | 0.00 | 0.00 | 0.00 | 56 | 1007.1 |
| 20260902074600 | 63 | 104 | 0.0 | 3.0 | 0.00 | 0.00 | 0.00 | 58 | 1007.1 |
| 20260902073058 | 63 | 131 | 1.0 | 5.0 | 0.00 | 0.00 | 0.00 | 59 | 1007.4 |
| 20260902071602 | 64 | 158 | 0.0 | 4.0 | 0.00 | 0.00 | 0.00 | 59 | 1007.6 |
| 20260902070050 | 64 | 139 | 0.0 | 5.0 | 0.00 | 0.00 | 0.00 | 58 | 1007.9 |
| 20260902064558 | 65 | 163 | 0.0 | 3.0 | 0.00 | 0.00 | 0.00 | 58 | 1007.9 |
| 20260902063052 | 65 | 118 | 3.0 | 6.0 | 0.00 | 0.00 | 0.00 | 57 | 1007.8 |
| 20260902060054 | 66 | 134 | 3.0 | 10.0 | 0.00 | 0.00 | 0.00 | 55 | 1007.5 |
| 20260902054546 | 66 | 124 | 4.0 | 8.0 | 0.00 | 0.00 | 0.00 | 56 | 1007.4 |
| 20260902053046 | 66 | 114 | 1.0 | 8.0 | 0.00 | 0.00 | 0.00 | 57 | 1007.3 |
| 20260902051546 | 66 | 110 | 2.0 | 8.0 | 0.00 | 0.00 | 0.00 | 57 | 1007.3 |
| 20260902044604 | 67 | 134 | 2.0 | 9.0 | 0.00 | 0.00 | 0.00 | 56 | 1006.7 |
| 20260902043043 | 67 | 152 | 3.0 | 10.0 | 0.00 | 0.00 | 0.00 | 56 | 1006.5 |
| 20260902041542 | 67 | 114 | 3.0 | 9.0 | 0.00 | 0.00 | 0.00 | 56 | 1006.3 |
| 20260902040050 | 68 | 147 | 0.0 | 7.0 | 0.00 | 0.00 | 0.00 | 56 | 1006.1 |
| 20260902034548 | 68 | 96 | 2.0 | 8.0 | 0.00 | 0.00 | 0.00 | 55 | 1005.9 |
| 20260902033041 | 69 | 119 | 2.0 | 10.0 | 0.00 | 0.00 | 0.00 | 54 | 1005.6 |
| 20260902031540 | 70 | 179 | 1.0 | 6.0 | 0.00 | 0.00 | 0.00 | 53 | 1005.5 |
| 20260902030039 | 71 | 232 | 1.0 | 6.0 | 0.00 | 0.00 | 0.00 | 51 | 1005.2 |
| 20260902024542 | 72 | 181 | 3.0 | 8.0 | 0.00 | 0.00 | 0.00 | 49 | 1004.9 |
| 20260902023042 | 74 | 100 | 3.0 | 13.0 | 0.00 | 0.00 | 0.00 | 46 | 1004.6 |
| 20260902021548 | 74 | 86 | 4.0 | 12.0 | 0.00 | 0.00 | 0.00 | 46 | 1004.5 |
| 20260902020038 | 76 | 126 | 3.0 | 7.0 | 0.00 | 0.00 | 0.00 | 45 | 1004.4 |
| 20260902014541 | 78 | 156 | 1.0 | 8.0 | 0.00 | 0.00 | 0.00 | 42 | 1004.2 |
| 20260902013035 | 79 | 141 | 7.0 | 13.0 | 0.00 | 0.00 | 0.00 | 36 | 1004.0 |
| 20260902011536 | 79 | 87 | 1.0 | 13.0 | 0.00 | 0.00 | 0.00 | 36 | 1003.8 |
| 20260902010033 | 79 | 307 | 1.0 | 9.0 | 0.00 | 0.00 | 0.00 | 35 | 1004.0 |
| 20260902004532 | 81 | 46 | 4.0 | 10.0 | 0.00 | 0.00 | 0.00 | 32 | 1004.1 |
| 20260902003038 | 82 | 46 | 1.0 | 8.0 | 0.00 | 0.00 | 0.00 | 32 | 1004.2 |
| 20260902001531 | 83 | 34 | 1.0 | 7.0 | 0.00 | 0.00 | 0.00 | 31 | 1004.1 |
| 20260902000030 | 84 | 44 | 2.0 | 8.0 | 0.00 | 0.00 | 0.00 | 29 | 1004.1 |
| 20260901234529 | 84 | 21 | 2.0 | 9.0 | 0.00 | 0.00 | 0.00 | 31 | 1004.0 |
| 20260901233029 | 84 | 343 | 3.0 | 8.0 | 0.00 | 0.00 | 0.00 | 30 | 1004.1 |
| 20260901231528 | 84 | 29 | 3.0 | 6.0 | 0.00 | 0.00 | 0.00 | 29 | 1004.0 |
| 20260901230027 | 85 | 242 | 2.0 | 6.0 | 0.00 | 0.00 | 0.00 | 31 | 1004.1 |
| 20260901224525 | 84 | 330 | 2.0 | 7.0 | 0.00 | 0.00 | 0.00 | 29 | 1004.1 |
| 20260901223034 | 84 | 44 | 2.0 | 8.0 | 0.00 | 0.00 | 0.00 | 30 | 1004.2 |
| 20260901221519 | 83 | 290 | 1.0 | 4.0 | 0.00 | 0.00 | 0.00 | 30 | 1004.4 |
| 20260901220030 | 83 | 321 | 3.0 | 6.0 | 0.00 | 0.00 | 0.00 | 29 | 1004.5 |
| 20260901214513 | 83 | 349 | 3.0 | 5.0 | 0.00 | 0.00 | 0.00 | 30 | 1004.7 |
| 20260901213013 | 81 | 212 | 2.0 | 6.0 | 0.00 | 0.00 | 0.00 | 32 | 1004.8 |
| 20260901211509 | 81 | 252 | 2.0 | 8.0 | 0.00 | 0.00 | 0.00 | 34 | 1005.1 |
| 20260901210011 | 81 | 319 | 2.0 | 6.0 | 0.00 | 0.00 | 0.00 | 32 | 1005.2 |
| 20260901204504 | 81 | 210 | 3.0 | 5.0 | 0.00 | 0.00 | 0.00 | 31 | 1005.5 |
| 20260901203004 | 80 | 274 | 1.0 | 5.0 | 0.00 | 0.00 | 0.00 | 32 | 1005.6 |
| 20260901201600 | 80 | 350 | 0.0 | 5.0 | 0.00 | 0.00 | 0.00 | 34 | 1005.8 |
| 20260901200055 | 79 | 340 | 1.0 | 4.0 | 0.00 | 0.00 | 0.00 | 33 | 1005.9 |
| 20260901194552 | 79 | 325 | 0.0 | 3.0 | 0.00 | 0.00 | 0.00 | 34 | 1006.2 |
| 20260901193049 | 78 | 96 | 0.0 | 2.0 | 0.00 | 0.00 | 0.00 | 38 | 1006.4 |
| 20260901191547 | 77 | 47 | 0.0 | 3.0 | 0.00 | 0.00 | 0.00 | 40 | 1006.5 |
| 20260901190144 | 75 | 86 | 1.0 | 3.0 | 0.00 | 0.00 | 0.00 | 42 | 1006.7 |
| 20260901184548 | 75 | 101 | 2.0 | 4.0 | 0.00 | 0.00 | 0.00 | 45 | 1006.8 |
| 20260901183040 | 75 | 113 | 2.0 | 5.0 | 0.00 | 0.00 | 0.00 | 40 | 1006.8 |
| 20260901181538 | 74 | 98 | 2.0 | 4.0 | 0.00 | 0.00 | 0.00 | 45 | 1006.9 |
| 20260901180037 | 73 | 108 | 0.0 | 5.0 | 0.00 | 0.00 | 0.00 | 42 | 1007.1 |
| 20260901174531 | 73 | 111 | 0.0 | 2.0 | 0.00 | 0.00 | 0.00 | 41 | 1007.2 |
| 20260901173029 | 72 | 159 | 0.0 | 2.0 | 0.00 | 0.00 | 0.00 | 41 | 1007.3 |
| 20260901171628 | 72 | 184 | 0.0 | 3.0 | 0.00 | 0.00 | 0.00 | 40 | 1007.2 |
| 20260901170026 | 71 | 229 | 0.0 | 5.0 | 0.00 | 0.00 | 0.00 | 41 | 1007.3 |
| 20260901164522 | 70 | 118 | 0.0 | 3.0 | 0.00 | 0.00 | 0.00 | 46 | 1007.3 |
| 20260901163017 | 67 | 94 | 0.0 | 3.0 | 0.00 | 0.00 | 0.00 | 56 | 1007.4 |
| 20260901161513 | 64 | 63 | 1.0 | 2.0 | 0.00 | 0.00 | 0.00 | 59 | 1007.6 |
| 20260901160011 | 61 | 100 | 0.0 | 2.0 | 0.00 | 0.00 | 0.00 | 62 | 1007.6 |
| 20260901154508 | 61 | 94 | 0.0 | 2.0 | 0.00 | 0.00 | 0.00 | 60 | 1007.6 |
| 20260901153107 | 60 | 98 | 0.0 | 3.0 | 0.00 | 0.00 | 0.00 | 62 | 1007.8 |
| 20260901151507 | 60 | 86 | 0.0 | 4.0 | 0.00 | 0.00 | 0.00 | 60 | 1007.8 |
| 20260901150011 | 60 | 115 | 2.0 | 4.0 | 0.00 | 0.00 | 0.00 | 59 | 1007.6 |
| 20260901144505 | 59 | 112 | 1.0 | 4.0 | 0.00 | 0.00 | 0.00 | 61 | 1007.6 |
| 20260901143005 | 58 | 94 | 1.0 | 2.0 | 0.00 | 0.00 | 0.00 | 65 | 1007.4 |
| 20260901141504 | 56 | 108 | 0.0 | 1.0 | 0.00 | 0.00 | 0.00 | 68 | 1007.3 |
| 20260901140004 | 55 | 108 | 0.0 | 2.0 | 0.00 | 0.00 | 0.00 | 69 | 1007.3 |
| 20260901134628 | 55 | 105 | 0.0 | 1.0 | 0.00 | 0.00 | 0.00 | 72 | 1007.2 |
| 20260901133002 | 55 | 105 | 0.0 | 0.0 | 0.00 | 0.00 | 0.00 | 71 | 1007.2 |
| 20260901131501 | 54 | 105 | 0.0 | 0.0 | 0.00 | 0.00 | 0.00 | 69 | 1007.2 |
| 20260901130000 | 55 | 105 | 0.0 | 3.0 | 0.00 | 0.00 | 0.00 | 69 | 1007.2 |
| 20260901124602 | 54 | 105 | 0.0 | 1.0 | 0.00 | 0.00 | 0.00 | 70 | 1007.2 |
| 20260901123057 | 55 | 103 | 0.0 | 1.0 | 0.00 | 0.00 | 0.00 | 68 | 1007.1 |
| 20260901121605 | 55 | 103 | 0.0 | 1.0 | 0.00 | 0.00 | 0.00 | 68 | 1007.2 |
| 20260901120053 | 56 | 103 | 0.0 | 0.0 | 0.00 | 0.00 | 0.00 | 67 | 1007.4 |
| 20260901114559 | 56 | 103 | 0.0 | 1.0 | 0.00 | 0.00 | 0.00 | 67 | 1007.5 |